Regional Weather Roundup
Issued by NWS

Home | Current Version | Previous Version | Text Only | Print | Product List | Glossary On
Versions: 1 2 3 4 5 6 7 8 9 10 11 12 13 14 15 16 17 18 19 20 21 22 23 24 25 26 27 28 29 30 31 32 33 34 35 36 37 38 39 40 41 42 43 44 45 46 47 48 49 50
000
ASUS42 KKEY 011010
RWRKEY

FLORIDA REGIONAL WEATHER ROUNDUP FOR THE FLORIDA KEYS
NATIONAL WEATHER SERVICE KEY WEST FLORIDA
600 AM EDT SAT AUG 01 2015

...SOUTH FLORIDA AND THE KEYS...

CITY           SKY/WX    TMP DP  RH WIND       PRES   REMARKS
FORT MYERS     CLOUDY    75  73  93 CALM      29.97F
SW REGIONAL AP CLOUDY    75  73  93 CALM      29.98S
NAPLES         CLOUDY    80  70  71 SE5       29.98R
MIAMI          MOCLDY    77  70  79 CALM      30.00F
WEST KENDALL   MOCLDY    75  72  90 NE3       30.00F
HOMESTEAD      PTCLDY    76  70  84 NE1       29.99F
MARATHON       CLOUDY    85  77  77 SE5       29.98F HX  95
BOCA CHICA NAS CLOUDY    84  76  76 S10       29.97F HX  93
KEY WEST INTL  PTCLDY    85  76  74 SE12      29.98S HX  94

...INTERNATIONAL WEATHER...

CITY           SKY/WX    TMP DP  RH WIND       PRES   REMARKS
NASSAU BAHAMAS CLOUDY    82  72  69 SE5       30.02S
CANCUN MEXICO  PTCLDY    77  75  94 CALM      29.97S
COZUMEL MEXICO CLEAR     72  72 100 CALM      29.97S

ADJACENT COASTAL WATERS...

STATION/POSITION TIME  SKY/WX   TEMP    WIND        PRES    WAVE
                                AIR SEA DIR/SP/G            HT/PER
                 (UTC)          (F)     (DEG/KT/KT) (MB)    (FT/S)
PULASKI SHOAL LI 0900            86     140/ 10/ 11 1015.3F
SAND KEY         0950            85     160/ 14/ 16 1015.0F
SOMBRERO KEY     1000            85     130/  9/  9 1015.9F
LONG KEY         0900            85 89  160/  9/ 10 1016.4F
MOLASSES REEF    1000            84 87  180/  5/  6 1015.8F
FOWEY ROCKS      NOT AVBL

$$


USA.gov is the U.S. government's official web portal to all federal, state and local government web resources and services.